Flag for Germany Weather past 2 weeks in Oberursel (Taunus), Hesse, Germany

Now
71 °F

Partly sunny.


Feels Like: 77 °F
Forecast: 51 / 68 °F
Wind: 2 mph from East

Location: Frankfurt / M-Flughafen

Current Time: Oct 2, 2014 at 6:59:59 PM

Latest Report: Oct 2, 2014 at 6:00 PM


Visibility: 22 mi

Pressure: 30.33 "Hg

Humidity: 54%

Dew point: 54 °F

Location of Oberursel (Taunus)Location

Historic Weather in Oberursel (Taunus) — Graph

°F

Oberursel (Taunus) temperature yesterday

Maximum temperature yesterday: 70 °F (at 2:00 PM)
Minimum temperature yesterday: 54 °F (at 5:00 AM)
Average temperature yesterday: 61 °F

Past Weeks' High & Low Weather Summary

 TemperatureHumidityPressure
High76 °F (Sep 17, 6:00 PM)100% (Oct 1, 7:00 AM)30.41 "Hg (Oct 1, 7:00 AM)
Low43 °F (Sep 24, 1:00 AM)50% (Sep 23, 3:00 PM)29.85 "Hg (Sep 18, 5:00 PM)
Average60 °F82%30.14 "Hg
* Reported Sep 17 6:00 PM — Oct 2 6:00 PM, Oberursel (Taunus), Weather by CustomWeather, © 2014

Note: Actual official high and low records may vary slightly from our data, if they occured in-between our weather recording intervals... More about our weather records

Advertising

Oberursel (Taunus) weather history for previous 24 hours

 ConditionsComfort  
Time TempWeatherWind HumidityBarometerVisibility
6:00 PM
Oct 2
71 °FPartly sunny.2 mph54%30.33 "Hg22 mi
5:00 PM71 °FPartly sunny.2 mph51%30.33 "Hg22 mi
4:00 PM71 °FPartly sunny.2 mph51%30.34 "Hg19 mi
3:00 PM71 °FPartly sunny.1 mph59%30.35 "Hg16 mi
2:00 PM70 °FPartly sunny.2 mph62%30.37 "Hg12 mi
1:00 PM67 °FPartly sunny.2 mph71%30.38 "Hg9 mi
12:00 PM64 °FPartly sunny.2 mph78%30.40 "Hg9 mi
11:00 AM61 °FScattered clouds.2 mph86%30.41 "Hg7 mi
10:00 AM56 °FScattered clouds.2 mph94%30.41 "Hg6 mi
9:00 AM54 °FScattered clouds.2 mph97%30.41 "Hg6 mi
8:00 AM53 °FFog.1 mph98%30.40 "Hg4 mi
7:00 AM53 °FFog.1 mph99%30.39 "Hg4 mi
6:00 AM53 °FFog.1 mph100%30.38 "Hg4 mi
5:00 AM53 °FFog.1 mph100%30.38 "Hg2 mi
4:00 AM53 °FFog.1 mph100%30.37 "Hg0 mi
3:00 AM53 °FClear.2 mph97%30.37 "Hg8 mi
2:00 AM53 °FClear.1 mph96%30.37 "Hg11 mi
1:00 AM55 °FPassing clouds.1 mph96%30.37 "Hg11 mi
12:00 AM56 °FPassing clouds.1 mph95%30.36 "Hg12 mi
10:00 PM
Oct 1
60 °FClear.1 mph92%30.35 "Hg16 mi
9:00 PM63 °FClear.No wind85%30.34 "Hg16 mi
8:00 PM65 °FPassing clouds.1 mph78%30.32 "Hg14 mi
7:00 PM69 °FScattered clouds.1 mph69%30.30 "Hg16 mi
6:00 PM69 °FPartly sunny.2 mph69%30.30 "Hg17 mi
Weather by CustomWeather, © 2014

See weather overviewHow to use our weather pages